When you browse on this site, cookies collect data to enhance your experience and personalize the content and advertising you see.
Visit our Privacy Policy to learn more. By continuing to use the site, you agree to this use of cookies and data.

Hourly Weather Malye Chuchevichi

Today, 8 August, Saturday

Time Temperature Precipitation Wind Pressure Humidity
00:00 +19°C° 0 mm 2 mps 755 mmHg 92%
01:00 +19°C° 0 mm 2 mps 755 mmHg 94%
02:00 +18°C° 0 mm 2 mps 755 mmHg 95%
03:00 +18°C° 0 mm 2 mps 755 mmHg 95%
04:00 +19°C° 0 mm 1 mps 755 mmHg 95%
05:00 +19°C° 0 mm 1 mps 755 mmHg 96%
06:00 +20°C° 0 mm 1 mps 755 mmHg 90%
07:00 +22°C° 0 mm 1 mps 755 mmHg 84%
08:00 +24°C° 0 mm 1 mps 756 mmHg 78%
09:00 +25°C° 0 mm 1 mps 755 mmHg 72%
10:00 +26°C° 0 mm 2 mps 755 mmHg 67%
11:00 +27°C° 0 mm 2 mps 755 mmHg 61%
12:00 +28°C° 0 mm 2 mps 755 mmHg 60%
13:00 +28°C° 0 mm 2 mps 754 mmHg 59%
14:00 +28°C° 0 mm 2 mps 754 mmHg 58%
15:00 +28°C° 0.1 mm 2 mps 754 mmHg 60%
16:00 +28°C° 0.1 mm 2 mps 753 mmHg 62%
17:00 +27°C° 0.1 mm 2 mps 753 mmHg 64%
18:00 +26°C° 0.2 mm 2 mps 753 mmHg 71%
19:00 +24°C° 0.2 mm 2 mps 753 mmHg 79%
20:00 +21°C° 0.2 mm 2 mps 753 mmHg 86%
21:00 +21°C° 0 mm 1 mps 753 mmHg 87%
22:00 +21°C° 0 mm 1 mps 752 mmHg 89%
23:00 +20°C° 0 mm 1 mps 752 mmHg 90%

Tomorrow, 9 August, Sunday

Time Temperature Precipitation Wind Pressure Humidity
00:00 +20°C° 0 mm 1 mps 752 mmHg 91%
01:00 +19°C° 0 mm 1 mps 752 mmHg 91%
02:00 +19°C° 0 mm 1 mps 752 mmHg 92%
03:00 +18°C° 0 mm 1 mps 752 mmHg 93%
04:00 +18°C° 0 mm 1 mps 752 mmHg 93%
05:00 +18°C° 0 mm 1 mps 752 mmHg 94%
06:00 +19°C° 0 mm 1 mps 752 mmHg 90%
07:00 +21°C° 0 mm 1 mps 752 mmHg 86%
08:00 +22°C° 0 mm 1 mps 752 mmHg 82%
09:00 +24°C° 0 mm 1 mps 752 mmHg 75%
10:00 +25°C° 0 mm 2 mps 752 mmHg 68%
11:00 +27°C° 0 mm 2 mps 752 mmHg 61%
12:00 +27°C° 0 mm 1 mps 751 mmHg 58%
13:00 +28°C° 0 mm 1 mps 751 mmHg 56%
14:00 +28°C° 0 mm 1 mps 751 mmHg 53%
15:00 +28°C° 0 mm 1 mps 751 mmHg 55%
16:00 +28°C° 0 mm 1 mps 751 mmHg 56%
17:00 +28°C° 0 mm 1 mps 750 mmHg 58%
18:00 +26°C° 0 mm 1 mps 750 mmHg 64%
19:00 +24°C° 0 mm 1 mps 750 mmHg 71%
20:00 +22°C° 0 mm 1 mps 750 mmHg 78%
21:00 +21°C° 0.3 mm 1 mps 750 mmHg 82%
22:00 +20°C° 0.3 mm 1 mps 750 mmHg 85%
23:00 +20°C° 0.3 mm 1 mps 750 mmHg 89%

Day after tomorrow, 10 August, Monday

Time Temperature Precipitation Wind Pressure Humidity
00:00 +19°C° 0.1 mm 1 mps 750 mmHg 90%
01:00 +17°C° 0.1 mm 0 mps 750 mmHg 90%
02:00 +17°C° 0.1 mm 0 mps 750 mmHg 91%
03:00 +18°C° 0.3 mm 1 mps 750 mmHg 92%
04:00 +18°C° 0.3 mm 1 mps 750 mmHg 93%
05:00 +18°C° 0.3 mm 1 mps 750 mmHg 94%
06:00 +19°C° 0 mm 1 mps 750 mmHg 90%
07:00 +21°C° 0 mm 1 mps 750 mmHg 86%
08:00 +22°C° 0 mm 1 mps 750 mmHg 82%
09:00 +24°C° 0.1 mm 1 mps 750 mmHg 75%
10:00 +25°C° 0.1 mm 2 mps 750 mmHg 68%
11:00 +27°C° 0.1 mm 2 mps 750 mmHg 61%
12:00 +27°C° 0 mm 2 mps 750 mmHg 58%
13:00 +28°C° 0 mm 2 mps 749 mmHg 55%
14:00 +28°C° 0 mm 2 mps 749 mmHg 52%
15:00 +28°C° 0.1 mm 2 mps 749 mmHg 54%
16:00 +28°C° 0.1 mm 2 mps 749 mmHg 56%
17:00 +28°C° 0.1 mm 2 mps 749 mmHg 58%
18:00 +26°C° 0.1 mm 1 mps 749 mmHg 65%
19:00 +24°C° 0.1 mm 1 mps 749 mmHg 72%
20:00 +22°C° 0.1 mm 1 mps 749 mmHg 78%
21:00 +21°C° 0 mm 1 mps 749 mmHg 80%
22:00 +21°C° 0 mm 1 mps 749 mmHg 82%
23:00 +20°C° 0 mm 1 mps 749 mmHg 83%

11 August, Tuesday

Time Temperature Precipitation Wind Pressure Humidity
00:00 +19°C° 0 mm 1 mps 749 mmHg 86%
01:00 +19°C° 0 mm 1 mps 749 mmHg 88%
02:00 +19°C° 0 mm 1 mps 749 mmHg 90%
03:00 +17°C° 0 mm 2 mps 749 mmHg 91%
04:00 +17°C° 0 mm 2 mps 749 mmHg 93%
05:00 +17°C° 0 mm 2 mps 749 mmHg 94%
06:00 +18°C° 0.3 mm 2 mps 749 mmHg 91%
07:00 +19°C° 0.3 mm 2 mps 749 mmHg 89%
08:00 +20°C° 0.3 mm 2 mps 749 mmHg 86%
09:00 +23°C° 0.3 mm 2 mps 749 mmHg 81%
10:00 +24°C° 0.3 mm 3 mps 749 mmHg 75%
11:00 +25°C° 0.3 mm 3 mps 749 mmHg 69%
12:00 +25°C° 0.3 mm 4 mps 749 mmHg 68%
13:00 +25°C° 0.3 mm 4 mps 749 mmHg 68%
14:00 +25°C° 0.3 mm 4 mps 749 mmHg 67%
15:00 +25°C° 0.3 mm 4 mps 749 mmHg 68%
16:00 +23°C° 0.3 mm 4 mps 749 mmHg 68%
17:00 +23°C° 0.3 mm 4 mps 749 mmHg 69%
18:00 +21°C° 0 mm 4 mps 749 mmHg 71%
19:00 +19°C° 0 mm 4 mps 750 mmHg 72%
20:00 +18°C° 0 mm 4 mps 750 mmHg 74%
21:00 +17°C° 0 mm 4 mps 750 mmHg 76%
22:00 +16°C° 0 mm 3 mps 750 mmHg 79%
23:00 +14°C° 0 mm 3 mps 751 mmHg 81%

12 August, Wednesday

Time Temperature Precipitation Wind Pressure Humidity
00:00 +13°C° 0 mm 3 mps 751 mmHg 84%
01:00 +12°C° 0 mm 3 mps 751 mmHg 87%
02:00 +13°C° 0 mm 2 mps 751 mmHg 90%
03:00 +12°C° 0 mm 2 mps 751 mmHg 91%
04:00 +12°C° 0 mm 2 mps 751 mmHg 93%
05:00 +10°C° 0 mm 2 mps 751 mmHg 94%
06:00 +13°C° 0 mm 2 mps 752 mmHg 87%
07:00 +13°C° 0 mm 3 mps 752 mmHg 80%
08:00 +16°C° 0 mm 3 mps 752 mmHg 73%
09:00 +17°C° 0 mm 3 mps 752 mmHg 68%
10:00 +18°C° 0 mm 3 mps 752 mmHg 64%
11:00 +19°C° 0 mm 3 mps 752 mmHg 59%
12:00 +19°C° 0.1 mm 3 mps 752 mmHg 60%
13:00 +19°C° 0.1 mm 3 mps 752 mmHg 60%
14:00 +19°C° 0.1 mm 3 mps 752 mmHg 60%
15:00 +19°C° 0 mm 3 mps 752 mmHg 60%
16:00 +19°C° 0 mm 3 mps 752 mmHg 61%
17:00 +19°C° 0 mm 3 mps 752 mmHg 61%
18:00 +18°C° 0 mm 3 mps 752 mmHg 67%
19:00 +16°C° 0 mm 2 mps 752 mmHg 73%
20:00 +15°C° 0 mm 2 mps 752 mmHg 79%
21:00 +14°C° 0 mm 2 mps 753 mmHg 81%
22:00 +13°C° 0 mm 2 mps 753 mmHg 84%
23:00 +13°C° 0 mm 2 mps 753 mmHg 87%

13 August, Thursday

Time Temperature Precipitation Wind Pressure Humidity
00:00 +12°C° 0 mm 2 mps 753 mmHg 88%
01:00 +12°C° 0 mm 2 mps 753 mmHg 90%
02:00 +10°C° 0 mm 2 mps 753 mmHg 91%
03:00 +10°C° 0 mm 2 mps 753 mmHg 91%
04:00 +10°C° 0 mm 2 mps 753 mmHg 92%
05:00 +10°C° 0 mm 1 mps 753 mmHg 92%
06:00 +12°C° 0 mm 1 mps 753 mmHg 84%
07:00 +14°C° 0 mm 1 mps 753 mmHg 77%
08:00 +16°C° 0 mm 1 mps 753 mmHg 69%
09:00 +18°C° 0 mm 1 mps 753 mmHg 64%
10:00 +20°C° 0 mm 1 mps 753 mmHg 59%
11:00 +22°C° 0 mm 1 mps 753 mmHg 53%
12:00 +20°C° 0 mm 0 mps 752 mmHg 53%
13:00 +20°C° 0 mm 0 mps 752 mmHg 53%
14:00 +20°C° 0 mm 0 mps 752 mmHg 53%
15:00 +19°C° 0 mm 0 mps 752 mmHg 55%
16:00 +21°C° 0 mm 1 mps 752 mmHg 57%
17:00 +21°C° 0 mm 1 mps 752 mmHg 59%
18:00 +19°C° 0 mm 1 mps 752 mmHg 64%
19:00 +18°C° 0 mm 1 mps 752 mmHg 69%
20:00 +15°C° 0 mm 1 mps 752 mmHg 74%
21:00 +15°C° 0 mm 1 mps 752 mmHg 75%
22:00 +15°C° 0 mm 1 mps 752 mmHg 76%
23:00 +14°C° 0 mm 1 mps 752 mmHg 77%
Show more